Location: Acequia del Cap
(41.7000°N, 0.6167°E)
Time: 01:10:36
(UTC+00:00)

Cosmos 2263 Rocket - Pass Details

Date: 07 August 2020
Orbit: 824 x 848 km, 71.0° (Epoch: 22 September)

Event Time Altitude Azimuth Distance (km) Brightness Sun altitude
Exits shadow 02:24:21 15° 146° (SE) 2,067 4.0 -23.5°
Maximum altitude 02:27:30 25° 102° (ESE) 1,613 3.9 -23.1°
Drops below altitude 10° 02:31:56 10° 49° (NE) 2,429 5.7 -22.6°
Sets 02:34:44 0° 37° (NE) 3,366 6.8 -22.3°
